{"data":{"norad_id":56134,"epoch":"2026-05-25T04:38:24.320256Z","epoch_age_seconds":69026,"freshness":"FRESH","line1":"1 56134U 23046AU  26145.19333704 -.00000078  00000+0  67000-5 0  9995","line2":"2 56134  43.0063  74.6545 0001444 272.9404  87.1282 15.27573240173891","mean_motion":15.2757324,"eccentricity":0.0001444,"inclination_deg":43.0063,"raan_deg":74.6545,"arg_perigee_deg":272.9404,"mean_anomaly_deg":87.1282,"bstar":6.7e-6,"rev_number":17389,"period_min":94.267165874155,"perigee_km":482.07857979099,"apogee_km":484.0600961814,"semimajor_km":6861.2063379862,"source":"CELESTRAK","updated_at":"2026-05-25T13:38:17.961332Z"}}